FALCON 9 DEB (46236 NORAD) Tracking and Keplerian Element Data

This shows tracking and keplerian element data for the satellite.

Feedback or suggestion? Click here.




ElementValue
Catalog46236
NameFALCON 9 DEB
Epoch Orbit578
Epoch Day267.44622387
Epoch Year2020
RAAN254.2408
Inclination52.9892
Eccentricity0.0010878
Argument of Perigee186.5192
Mean Anonmoly173.5716
Mean Motion16.46231324
Decay Rate0.08288449
L11 46236U 20057BT 20267.44622387 .08288449 12359-4 16589-3 0 9997
L22 46236 52.9892 254.2408 0010878 186.5192 173.5716 16.46231324 5781

Live tracking and technical data element details for FALCON 9 DEB (NORAD 46236). FALCON 9 DEB can be tracked NOW for your location showing map with azimuth and elevation plus other details from your city location.

Track the satellite on the map from your city or location and see movement details for azimuth, elevation, latitude, longitude, range, height, and movement on the map or in text.







IsCatalogInMostPopularTable: catalog: 46236, numindb: 28
Update: records affected: 1



GetName: 46236 FALCON 9 DEB

Hit Count: updated at: Wed, 02 Dec 2020 18:52:23 GMT